STARLINK-37261

Last updated on Sun Apr 12 2026 00:02:10 GMT+0000 (Coordinated Universal Time)

1 68567U 26070AB 26101.50002315 -.01171280 43400-3 -24700-2 0 9994 2 68567 53.1581 220.1567 0000919 54.9908 170.3517 15.98201760 2650
UTC large
Height (km)
Speed (km/s)
/
Latitude / Longitude
Inclination (degrees)
Orbital Period (minutes)
Azimuth
Elevation
Range (km)
Doppler Factor

Next 0 passes for location: London (51.5072 / 0.1276)

Sorry there are no passes over London.
STARLINK-37261